User: anonymous   Login
Location: Albany
(42.6526°N, 73.7562°W)
Time: 16:38:29
(UTC+00:00)
Language:

IRS-1C Rocket - Orbit

View from above orbital plane
View from above orbital plane
View from above satellite
View from above satellite

Ground track
Ground track

The orbit data is extracted from the following two-line orbital elements,

1 23753U 95072C   20024.76312782 -.00000039  00000-0  31443-5 0  9990
2 23753  98.9796  35.0482 0004162  36.5613 323.5850 14.26590583253110
Epoch (UTC): 24 January 2020 18:18:54
Eccentricity: 0.0004162
inclination: 98.9796°
perigee height: 800 km
apogee height: 806 km
right ascension of ascending node: 35.0482°
argument of perigee: 36.5613°
revolutions per day: 14.26590583
mean anomaly at epoch: 323.5850°
orbit number at epoch: 25311

The dashed part of the orbit path shows where the satellite is in the earth's shadow,  

DLR